Regional Weather Roundup
Issued by NWS Goodland, KS

Home | Current Version | Previous Version | Text Only | Print | Product List | Glossary Off
Versions: 1 2 3 4 5 6 7 8 9 10 11 12 13 14 15 16 17 18 19 20 21 22 23 24 25 26 27 28 29 30 31 32 33 34 35 36 37 38 39 40 41 42 43 44 45 46 47 48 49 50

501
ASUS43 KGLD 271108
RWRGLD

GOODLAND FORECAST AREA HOURLY WEATHER ROUNDUP
NATIONAL WEATHER SERVICE GOODLAND KS
500 AM MDT THU JUL 27 2017

...OFFICIAL OBSERVATIONS...

CITY           SKY/WX    TMP DP  RH WIND       PRES   REMARKS
GOODLAND KS    CLOUDY    69  67  93 NE6       30.16F
HILL CITY KS   CLOUDY    73  70  90 NE14      30.08S
IMPERIAL NEB   CLOUDY    68  64  87 NE6       30.16S
MCCOOK NEB     CLOUDY    71  69  93 NE9       30.13R
AKRON CO       MOCLDY    64  62  93 SE7       30.23R
BURLINGTON CO  CLOUDY    68  67  96 NE3       30.21R
LIMON CO       CLOUDY    62  61  96 CALM      30.27R
$$

...UNOFFICIAL OBSERVATIONS...

CITY           SKY/WX    TMP DP  RH WIND       PRES   REMARKS
LENORA KS        N/A     70  32  24 MISG        N/A
NORTON KS      CLOUDY    70  64  83 N9        30.10R
SHARON SPRINGS   N/A     70  68  94 CALM        N/A
TRENTON NEB      N/A     69  32  25 E5          N/A
KIT CARSON CO    N/A     68  65  90 CALM        N/A
YUMA CO        CLOUDY    64  59  82 CALM      30.20S
$$




USA.gov is the U.S. government's official web portal to all federal, state and local government web resources and services.